一网星座-0679星 (ONEWEB-0679)

导读

ONEWEB-0679是英国OneWeb公司的低轨互联网卫星,于2023年5月20日发射,属于OneWeb第一代低轨卫星星座组网的一部分。该星座旨在构建全球卫星宽带互联网,为全球偏远地区、海上和航空场景提供高速互联网接入服务,此次发射助力完成了第一代星座634颗卫星的发射目标,推动OneWeb星座初步运营能力的形成。

Basic Information
目录编号:
56715
目录名称:
ONEWEB-0679
国际标识:
2023-068F
轨道中心:
EARTH
卫星名称:
一网星座-0679星
卫星全名:
一网星座-0679星 (ONEWEB-0679)
卫星状态:
在轨 (已飞行1121 天)
发射日期:
2023-05-20 UTC
国别 :
英国 (GB)
星等 :
--
Orbit Information
数据来源 国际轨道数据 AOE轨道数据
星历时间 2026-06-14T12:53:28+0800
10小时前
查看轨道信息
2026-06-14T02:00:00+0800
21小时前
查看轨道信息
半长轴 7575.892km 7575.874km
偏心率 0.0002587 0.0001159
轨道倾角 87.910° 87.917°
近地点辐角 92.557° 102.277°
升交点赤经 229.362° 229.447°
平近点角 267.586° 268.234°
近地点 1195.795km 1196.858km
远地点 1199.715km 1198.616km
周期 109.373分钟 109.373分钟
每日圈数 13.165948 13.165994
Detailed Information
平衡模式:
三轴稳定
覆盖范围:
全球
运营商:
一网卫星公司
运营商所在国:
英国
制造商(研发单位):
一网卫星公司
制造商所在国:
英国
使用方式:
暂无
Satellite Introduction
OneWeb卫星网络由648颗重约125公斤的微型卫星组成,运行在1200公里的轨道上。 每颗卫星都能够提供至少每秒8千兆位的吞吐量,以使用其高吞吐量的Ku频段有效载荷为家庭和移动平台提供互联网接入。该卫星仍在工作。
2D Orbit Map
3D Orbit Map
Orbit Altitude Analysis Chart
Orbit Inclination Analysis Chart
Orbit Comprehensive Analysis Chart
View Comprehensive Chart